Погода в Куусамо

Финляндия     65°57′48″N   29°09′22″E
темп.,
°C
ветер,
м/с
пор.,
м/с
влажн.,
%
обл.,
%
осадки,
мм/ч
давл.,
гПа
погр.,
м
27 ноября, сб
сб2723:00−11св1592100 0.0 1002145
02:00−11ссз1195100 0.0 100312
05:00−11сз1191100 0.0 100518
08:00−11сз1192100 0.0 100713
11:00−12з00967 0.0 100910
14:00−13ююз00967 0.0 10119
17:00−14ю11968 0.0 101210
20:00−14ююв119718 0.0 101210
28 ноября, вс
вс2823:00−14юв119757 0.0 101210
02:00−14вюв119860 0.0 101210
05:00−15вюв119864 0.0 101210
08:00−15в119857 0.0 101211
11:00−15в119859 0.0 101314
14:00−15вюв119974 0.0 101310
17:00−15юв119856 0.0 101310
20:00−16юв119833 0.0 101411
29 ноября, пн
пн2923:00−16ююв119853 0.0 101512
02:00−16ююв119841 0.0 101513
05:00−16ююв129857 0.0 101541
08:00−15ююв239699 0.0 101564
11:00−14ююв2795100 0.0 1015146
14:00−13юв2696100 0.0 1015130
17:00−14вюв1196100 0.0 101435
20:00−14в1395100 0.0 101370
30 ноября, вт
вт3023:00−13в2994100 0.0 1011219
02:00−11всв31193100 0.0 1008363
05:00−11св41294100 0.0 1005539
08:00−10св41293100 0.2 1002719
11:00−9св51289100 0.2 999823
14:00−10св51387100 0.3 996814
17:00−10св51385100 0.2 994805
20:00−10ссв51186100 0.3 992808
1 декабря, ср
ср123:00−11с51192100 0.4 990644
02:00−10с51293100 1.9 988743
05:00−9с51294100 1.8 987805
08:00−7ссв41194100 3.8 986926
11:00−7ссв41094100 1.3 986762
14:00−6св4994100 2.3 986910
17:00−7св41094100 0.9 987834
20:00−7св4994100 1.5 988918